FW4179 Weather Reports


Display with metric or nautical units.
time (UTC)temp
F
wind
direction
speed
MPH
gust
MPH
rain 1hr
in
rain 24hr
in
rain mn
in
humidity
%
barometer
mb
20260507114604 51 0 0.0 3.0 0.00 0.16 0.00 97 1015.0
20260507113052 51 0 0.0 0.0 0.00 0.16 0.00 97 1014.9
20260507111545 51 0 0.0 2.0 0.00 0.16 0.00 97 1014.5
20260507110046 51 0 0.0 1.0 0.00 0.16 0.00 97 1014.1
20260507104551 51 19 0.0 1.0 0.00 0.23 0.00 98 1013.9
20260507103044 51 0 0.0 0.0 0.00 0.23 0.00 98 1013.9
20260507101550 51 0 0.0 2.0 0.00 0.23 0.00 98 1014.0
20260507100048 52 0 0.0 0.0 0.00 0.23 0.00 99 1013.9
20260507094546 52 0 0.0 1.0 0.00 0.26 0.00 99 1014.0
20260507093047 52 0 0.0 0.0 0.00 0.26 0.00 99 1013.9
20260507091547 52 0 0.0 1.0 0.00 0.26 0.00 99 1014.1
20260507090047 52 0 0.0 1.0 0.00 0.26 0.00 99 1013.8
20260507084544 52 0 0.0 1.0 0.00 0.26 0.00 99 1013.9
20260507083044 52 0 0.0 3.0 0.00 0.26 0.00 99 1014.2
20260507081544 52 0 0.0 1.0 0.00 0.26 0.00 99 1014.3
20260507080045 52 0 0.0 0.0 0.00 0.26 0.00 99 1013.9
20260507074601 52 0 0.0 2.0 0.00 0.26 0.00 99 1013.8
20260507073048 52 0 0.0 1.0 0.00 0.26 0.00 99 1014.0
20260507071550 52 0 0.0 1.0 0.00 0.26 0.00 99 1014.2
20260507070105 52 0 0.0 0.0 0.00 0.26 0.00 99 1014.5
20260507064543 52 0 0.0 0.0 0.00 0.26 0.00 99 1014.2
20260507063058 53 0 0.0 3.0 0.00 0.26 0.00 99 1014.0
20260507061549 53 0 0.0 2.0 0.00 0.26 0.00 99 1014.5
20260507060049 53 0 0.0 1.0 0.00 0.26 0.00 99 1014.0
20260507054545 53 0 0.0 0.0 0.00 0.26 0.00 99 1014.6
20260507053049 53 0 0.0 0.0 0.00 0.26 0.00 99 1014.5
20260507051545 53 0 0.0 0.0 0.00 0.26 0.00 99 1015.5
20260507050054 53 0 0.0 0.0 0.00 0.26 0.00 99 1015.1
20260507044551 53 0 0.0 0.0 0.00 0.26 0.26 99 1015.3
20260507043047 53 0 0.0 0.0 0.01 0.26 0.26 99 1015.2
20260507041545 53 0 0.0 0.0 0.01 0.26 0.26 99 1015.1
20260507040048 53 0 0.0 0.0 0.01 0.26 0.26 99 1014.9
20260507034546 53 0 0.0 0.0 0.01 0.26 0.26 99 1015.1
20260507033048 53 0 0.0 0.0 0.00 0.25 0.25 99 1014.9
20260507031546 53 0 0.0 0.0 0.00 0.25 0.25 99 1014.4
20260507030116 54 0 0.0 1.0 0.00 0.25 0.25 99 1014.2
20260507024548 54 0 0.0 2.0 0.00 0.25 0.25 99 1014.5
20260507023046 54 0 0.0 0.0 0.00 0.25 0.25 99 1014.9
20260507021544 54 0 0.0 2.0 0.00 0.25 0.25 99 1015.0
20260507020047 54 0 0.0 3.0 0.00 0.25 0.25 99 1015.7
20260507014553 54 0 0.0 2.0 0.00 0.25 0.25 99 1014.7
20260507013051 54 336 0.0 1.0 0.00 0.25 0.25 99 1014.6
20260507011545 54 0 0.0 2.0 0.00 0.25 0.25 99 1013.5
20260507010055 54 0 0.0 2.0 0.00 0.25 0.25 99 1014.0
20260507004548 54 0 0.0 0.0 0.01 0.25 0.25 98 1013.7
20260507003045 54 0 0.0 1.0 0.01 0.25 0.25 98 1013.7
20260507001550 54 0 0.0 1.0 0.01 0.25 0.25 98 1013.6
20260507000047 54 0 0.0 0.0 0.01 0.25 0.25 98 1014.6
20260506234550 54 0 0.0 2.0 0.00 0.24 0.24 98 1014.9
20260506233104 54 0 0.0 0.0 0.00 0.24 0.24 98 1015.0
20260506231547 55 0 0.0 0.0 0.00 0.24 0.24 98 1014.4
20260506224549 55 306 2.0 4.0 0.00 0.24 0.24 98 1013.9
20260506223047 55 0 0.0 3.0 0.00 0.24 0.24 97 1014.5
20260506221556 55 0 2.0 4.0 0.00 0.24 0.24 97 1014.3
20260506220059 55 0 0.0 4.0 0.00 0.24 0.24 97 1013.9
20260506214551 56 336 1.0 5.0 0.00 0.24 0.24 97 1014.1
20260506213051 56 0 0.0 3.0 0.00 0.24 0.24 97 1013.2
20260506211601 56 315 0.0 3.0 0.00 0.24 0.24 97 1013.1
20260506210047 57 315 1.0 3.0 0.00 0.24 0.24 97 1013.4
20260506204548 57 338 1.0 3.0 0.00 0.24 0.24 97 1013.0
20260506203047 57 0 0.0 5.0 0.00 0.24 0.24 97 1013.3
20260506201545 58 321 1.0 3.0 0.00 0.24 0.24 97 1012.7
20260506200047 59 321 0.0 4.0 0.00 0.24 0.24 98 1012.9
20260506194554 59 324 1.0 3.0 0.00 0.24 0.24 97 1013.2
20260506193048 60 324 1.0 5.0 0.00 0.24 0.24 98 1012.9
20260506191548 61 323 3.0 5.0 0.00 0.24 0.24 97 1013.5
20260506190047 61 298 1.0 4.0 0.00 0.24 0.24 98 1013.5
20260506184556 61 286 1.0 4.0 0.00 0.24 0.24 97 1013.3
20260506183053 62 0 1.0 3.0 0.00 0.24 0.24 97 1013.1
20260506181546 62 0 0.0 2.0 0.00 0.24 0.24 97 1012.7
20260506180047 62 90 0.0 0.0 0.00 0.24 0.24 98 1012.7
20260506174549 62 0 0.0 0.0 0.00 0.24 0.24 98 1013.1
20260506173104 62 325 2.0 5.0 0.00 0.24 0.24 98 1013.4
20260506171552 62 0 0.0 5.0 0.01 0.24 0.24 98 1013.4
20260506164558 61 267 1.0 4.0 0.01 0.24 0.24 99 1013.1
20260506163045 61 318 3.0 5.0 0.01 0.24 0.24 97 1013.2
20260506161548 62 325 3.0 7.0 0.01 0.23 0.23 97 1013.3
20260506160059 64 309 3.0 9.0 0.01 0.23 0.23 94 1012.9
20260506154555 67 226 2.0 5.0 0.01 0.23 0.23 97 1012.5
20260506153047 67 0 2.0 5.0 0.02 0.23 0.23 98 1012.2
20260506151545 66 244 1.0 7.0 0.01 0.22 0.22 99 1011.9
20260506150053 65 228 1.0 10.0 0.02 0.22 0.22 99 1011.9
20260506144547 64 164 4.0 8.0 0.03 0.22 0.22 99 1011.2
20260506143049 64 178 1.0 7.0 0.02 0.21 0.21 99 1011.4
20260506141603 63 163 2.0 7.0 0.02 0.21 0.21 99 1011.6
20260506140048 63 134 3.0 7.0 0.02 0.20 0.20 99 1011.1
20260506134548 63 259 2.0 7.0 0.01 0.19 0.19 98 1012.5
20260506133041 64 234 2.0 5.0 0.02 0.19 0.19 98 1012.7
20260506131547 64 233 3.0 5.0 0.02 0.19 0.19 98 1012.3
20260506130047 63 207 1.0 4.0 0.02 0.18 0.18 98 1011.6
20260506124546 63 0 2.0 7.0 0.03 0.18 0.18 98 1011.3
20260506123046 63 217 3.0 7.0 0.04 0.17 0.17 98 1011.7
20260506121553 64 219 2.0 5.0 0.05 0.17 0.17 98 1010.8
20260506120118 64 225 2.0 19.0 0.06 0.16 0.16 98 1010.6